CAS-2T & KS-1Q

Last updated on Tue Sep 16 2025 00:03:09 GMT+0000 (Coordinated Universal Time)

1 41847U 16066G 25258.47941523 .00001299 00000+0 19441-3 0 9992 2 41847 98.4129 332.0709 0344204 242.1641 114.4280 14.43716712465146
UTC large
Height (km)
Speed (km/s)
/
Latitude / Longitude
Inclination (degrees)
Orbital Period (minutes)
Azimuth
Elevation
Range (km)
Doppler Factor

Next 0 passes for location: London (51.5072 / 0.1276)

Sorry there are no passes over London.